Wahoo, NE

5:49 AM CDT on June 25, 2017 (GMT -0500)
Wahoo Municipal

Weather History for KAHQ - February, 2012

Change the Weather History Date:

Tuesday, February 7, 2012

  Actual Average Record
Temperature  
Mean Temperature 28 °F -  
Max Temperature 33 °F 32 °F 54 °F (1966)
Min Temperature 24 °F 10 °F -11 °F (1985)
Degree Days  
Heating Degree Days 36    
Moisture  
Dew Point 25 °F    
Average Humidity 87    
Maximum Humidity 92    
Minimum Humidity 83    
Precipitation  
Precipitation 0.00 in - - ()
Sea Level Pressure  
Sea Level Pressure 30.38 in    
Wind  
Wind Speed 16 mph (North)    
Max Wind Speed 22 mph    
Max Gust Speed 25 mph    
Visibility 9 miles    
Events Snow    
Averages and records for this station are not official NWS values.
T = Trace of Precipitation, MM = Missing Value Source: NWS Daily Summary

Daily Weather History Graph

Daily Weather History Graph

Search for Another Location

Airport or City:

Trip Planner

Search our weather history database for the weather conditions in past years. The results will help you decide how hot, cold, wet, or windy it might be!

Date:

Astronomy

Feb. 07, 2012 Rise Set
Actual Time 7:31 AM CST 5:49 PM CST
Civil Twilight 7:02 AM CST 6:18 PM CST
Nautical Twilight 6:30 AM CST 6:51 PM CST
Astronomical Twilight 5:57 AM CST 7:23 PM CST
Moon 6:02 PM CST (2/7) 7:00 AM CST (2/7)
Length of Visible Light 11h 15m
Length of Day
10h 18m
Full, 100% of the Moon is Illuminated
Feb 7
Full
Feb 7
Full
Feb 14
Last Quarter
Feb 21
New
Feb 29
First Quarter

Hourly Weather History & Observations

Time (CST) Temp. Windchill Dew Point Humidity Pressure Visibility Wind Dir Wind Speed Gust Speed Precip Events Conditions
12:15 AM 32.0 °F 24.8 °F 28.6 °F 87% 30.21 in 7.0 mi NW 8.1 mph - N/A   Overcast
12:35 AM 33.6 °F 25.0 °F 29.7 °F 85% 30.22 in 10.0 mi NW 11.5 mph - N/A   Overcast
12:55 AM 33.1 °F 23.0 °F 29.8 °F 88% 30.22 in 10.0 mi NNW 15.0 mph 19.6 mph N/A   Overcast
1:15 AM 32.5 °F 20.5 °F 29.7 °F 89% 30.23 in 10.0 mi North 20.7 mph - N/A   Overcast
1:35 AM 31.6 °F 19.7 °F 28.4 °F 88% 30.24 in 7.0 mi North 19.6 mph - N/A   Overcast
1:55 AM 31.1 °F 18.9 °F 28.2 °F 89% 30.25 in 7.0 mi North 19.6 mph - N/A   Mostly Cloudy
2:15 AM 30.7 °F 20.4 °F 28.2 °F 90% 30.26 in 10.0 mi North 13.8 mph - N/A   Overcast
2:35 AM 30.6 °F 19.4 °F 27.5 °F 88% 30.27 in 10.0 mi North 16.1 mph - N/A   Overcast
2:55 AM 30.6 °F 19.4 °F 27.7 °F 89% 30.27 in 7.0 mi North 16.1 mph - N/A   Overcast
3:15 AM 30.6 °F 19.4 °F 27.5 °F 88% 30.28 in 10.0 mi North 16.1 mph - N/A   Overcast
3:35 AM 30.6 °F 19.4 °F 27.5 °F 88% 30.28 in 10.0 mi North 16.1 mph - N/A   Overcast
3:55 AM 29.5 °F 18.4 °F 26.6 °F 89% 30.28 in 10.0 mi North 15.0 mph - N/A   Overcast
4:15 AM 29.8 °F 18.4 °F 26.8 °F 88% 30.28 in 10.0 mi North 16.1 mph - N/A   Overcast
4:35 AM 30.4 °F 19.1 °F 27.5 °F 89% 30.29 in 10.0 mi North 16.1 mph - N/A   Overcast
4:55 AM 30.7 °F 18.5 °F 27.3 °F 87% 30.29 in 10.0 mi North 19.6 mph - N/A   Overcast
5:15 AM 30.6 °F 19.0 °F 27.3 °F 88% 30.30 in 10.0 mi North 17.3 mph - N/A   Overcast
5:35 AM 30.4 °F 18.4 °F 27.3 °F 88% 30.30 in 10.0 mi North 18.4 mph - N/A   Overcast
5:55 AM 30.2 °F 17.8 °F 27.1 °F 88% 30.31 in 10.0 mi North 19.6 mph - N/A   Overcast
6:15 AM 30.2 °F 18.1 °F 27.0 °F 88% 30.31 in 10.0 mi North 18.4 mph 24.2 mph N/A   Overcast
6:35 AM 30.2 °F 18.9 °F 27.1 °F 88% 30.32 in 10.0 mi North 16.1 mph 21.9 mph N/A   Overcast
6:55 AM 30.2 °F 18.1 °F 27.0 °F 88% 30.33 in 10.0 mi North 18.4 mph - N/A   Overcast
7:15 AM 29.7 °F 17.8 °F 27.1 °F 90% 30.34 in 7.0 mi North 17.3 mph - N/A   Overcast
7:35 AM 29.3 °F 18.2 °F 27.1 °F 92% 30.34 in 2.5 mi North 15.0 mph - N/A Snow Light Snow
7:55 AM 29.3 °F 18.2 °F 26.8 °F 90% 30.35 in 4.0 mi North 15.0 mph - N/A Snow Light Snow
8:15 AM 29.7 °F 17.4 °F 26.2 °F 87% 30.35 in 10.0 mi North 18.4 mph - N/A   Overcast
8:35 AM 29.8 °F 18.0 °F 26.2 °F 86% 30.36 in 10.0 mi North 17.3 mph - N/A   Overcast
8:55 AM 29.8 °F 18.4 °F 26.4 °F 87% 30.37 in 10.0 mi North 16.1 mph - N/A   Overcast
9:15 AM 29.7 °F 17.4 °F 26.6 °F 88% 30.37 in 5.0 mi North 18.4 mph - N/A   Overcast
9:35 AM 30.0 °F 17.9 °F 26.4 °F 86% 30.37 in 7.0 mi North 18.4 mph - N/A   Overcast
9:55 AM 30.0 °F 17.5 °F 26.6 °F 87% 30.38 in 7.0 mi North 19.6 mph 23.0 mph N/A Snow Light Snow
10:15 AM 30.2 °F 18.5 °F 26.6 °F 86% 30.39 in 7.0 mi North 17.3 mph - N/A   Overcast
10:35 AM 30.2 °F 17.8 °F 26.6 °F 86% 30.39 in 7.0 mi North 19.6 mph - N/A   Overcast
10:55 AM 30.4 °F 18.0 °F 26.6 °F 86% 30.41 in 10.0 mi North 19.6 mph 24.2 mph N/A   Overcast
11:15 AM 30.6 °F 18.6 °F 26.6 °F 85% 30.41 in 10.0 mi North 18.4 mph - N/A   Overcast
11:35 AM 30.6 °F 18.2 °F 26.4 °F 85% 30.41 in 10.0 mi North 19.6 mph - N/A   Overcast
11:55 AM 30.6 °F 19.4 °F 26.6 °F 85% 30.41 in 10.0 mi North 16.1 mph - N/A   Overcast
12:15 PM 30.2 °F 18.9 °F 26.6 °F 86% 30.42 in 7.0 mi North 16.1 mph - N/A   Overcast
12:35 PM 30.2 °F 17.4 °F 26.2 °F 85% 30.41 in 7.0 mi North 20.7 mph - N/A   Overcast
12:55 PM 30.0 °F 17.5 °F 25.7 °F 84% 30.41 in 10.0 mi North 19.6 mph 23.0 mph N/A   Overcast
1:15 PM 29.7 °F 16.4 °F 25.0 °F 83% 30.41 in 10.0 mi North 21.9 mph - N/A   Overcast
1:35 PM 29.3 °F 16.2 °F 25.2 °F 85% 30.41 in 7.0 mi North 20.7 mph 25.3 mph N/A   Overcast
1:55 PM 28.9 °F 16.5 °F 25.0 °F 85% 30.42 in 10.0 mi North 18.4 mph 25.3 mph N/A   Overcast
2:15 PM 28.4 °F 15.1 °F 24.8 °F 86% 30.42 in 10.0 mi North 20.7 mph - N/A   Overcast
2:35 PM 28.4 °F 16.6 °F 24.8 °F 86% 30.42 in 10.0 mi North 16.1 mph 23.0 mph N/A   Overcast
2:55 PM 28.2 °F 15.5 °F 24.4 °F 86% 30.43 in 10.0 mi North 18.4 mph - N/A   Overcast
3:15 PM 27.9 °F 14.7 °F 24.1 °F 86% 30.43 in 10.0 mi North 19.6 mph - N/A   Overcast
3:35 PM 27.5 °F 14.2 °F 23.9 °F 86% 30.44 in 10.0 mi North 19.6 mph 23.0 mph N/A   Overcast
3:55 PM 27.5 °F 14.6 °F 23.7 °F 86% 30.44 in 10.0 mi North 18.4 mph - N/A   Overcast
4:15 PM 27.3 °F 14.4 °F 23.4 °F 85% 30.45 in 10.0 mi North 18.4 mph - N/A   Overcast
4:35 PM 27.1 °F 13.8 °F 23.0 °F 84% 30.45 in 10.0 mi North 19.6 mph 24.2 mph N/A   Overcast
4:55 PM 27.0 °F 13.5 °F 23.0 °F 85% 30.45 in 10.0 mi North 19.6 mph - N/A   Overcast
5:15 PM 26.4 °F 12.8 °F 23.0 °F 87% 30.45 in 10.0 mi North 19.6 mph - N/A   Overcast
5:35 PM 26.1 °F 12.0 °F 22.8 °F 88% 30.45 in 10.0 mi North 20.7 mph - N/A   Overcast
5:55 PM 25.7 °F 13.1 °F 23.0 °F 89% 30.46 in 10.0 mi North 16.1 mph - N/A   Overcast
6:15 PM 25.5 °F 12.9 °F 22.5 °F 88% 30.46 in 10.0 mi North 16.1 mph - N/A   Overcast
6:35 PM 25.2 °F 13.3 °F 22.1 °F 88% 30.47 in 10.0 mi North 13.8 mph - N/A   Overcast
6:55 PM 24.6 °F 12.7 °F 21.2 °F 87% 30.47 in 10.0 mi NNW 13.8 mph - N/A Snow Light Snow
7:15 PM 25.3 °F 13.1 °F 21.6 °F 86% 30.48 in 10.0 mi NNW 15.0 mph - N/A   Overcast
7:35 PM 25.7 °F 13.1 °F 21.2 °F 83% 30.48 in 10.0 mi NNW 16.1 mph 19.6 mph N/A   Overcast
7:55 PM 25.7 °F 14.0 °F 21.6 °F 84% 30.48 in 10.0 mi NNW 13.8 mph - N/A   Overcast
8:15 PM 25.5 °F 12.9 °F 21.2 °F 84% 30.49 in 10.0 mi NNW 16.1 mph - N/A   Overcast
8:35 PM 25.5 °F 13.8 °F 21.2 °F 84% 30.49 in 10.0 mi NNW 13.8 mph - N/A   Overcast
8:55 PM 25.3 °F 14.1 °F 21.0 °F 84% 30.50 in 10.0 mi NNW 12.7 mph - N/A   Overcast
9:15 PM 25.2 °F 13.9 °F 20.8 °F 84% 30.50 in 10.0 mi NNW 12.7 mph - N/A   Overcast
9:35 PM 25.2 °F 13.9 °F 21.0 °F 84% 30.51 in 10.0 mi NNW 12.7 mph - N/A   Overcast
9:55 PM 25.2 °F 14.4 °F 20.8 °F 84% 30.51 in 10.0 mi NNW 11.5 mph - N/A   Overcast
10:15 PM 25.2 °F 13.9 °F 20.8 °F 84% 30.51 in 10.0 mi NNW 12.7 mph - N/A   Overcast
10:35 PM 25.2 °F 13.9 °F 20.3 °F 82% 30.51 in 10.0 mi NNW 12.7 mph - N/A   Overcast
10:55 PM 25.2 °F 14.4 °F 20.1 °F 81% 30.51 in 10.0 mi NNW 11.5 mph - N/A   Overcast
11:15 PM 24.8 °F 15.3 °F 19.9 °F 82% 30.51 in 10.0 mi NNW 9.2 mph - N/A   Overcast
11:35 PM 24.8 °F 16.1 °F 20.1 °F 82% 30.51 in 10.0 mi NNW 8.1 mph - N/A   Overcast
11:55 PM 24.6 °F 15.1 °F 19.6 °F 81% 30.51 in 10.0 mi NNW 9.2 mph - N/A   Overcast